Simultaneous Nadir Overpasses (SNOs) Predictions

Prediction of SNOs between LANDSAT-8 and METOP-A Satellite Orbit:

Table of predicted SNOs for the next 14.0 days since TLE Epoch: 11/25/2017
Index Date (LANDSAT-8) Time (LANDSAT-8) Lat,Lon (LANDSAT-8) SZA (LANDSAT-8 ) Date (METOP-A) Time (METOP-A) Lat,Lon (METOP-A) SZA (METOP-A ) Distance(km) Time Diff (sec)
1 11/25/2017 05:46:26 -81.27, -44.32 75.48 11/25/2017 05:46:00 -81.27, -44.25 75.49 1.31 26
2 11/25/2017 06:35:52 81.28, 123.44 104.55 11/25/2017 06:36:40 81.28, 123.31 104.55 2.12 48
3 11/28/2017 01:20:39 -81.27, 22.08 74.99 11/28/2017 01:20:18 -81.27, 21.96 75.02 2.10 21
4 11/28/2017 02:10:05 81.28,-170.19 105.03 11/28/2017 02:10:57 81.28,-170.14 105.06 1.01 52
5 11/30/2017 20:54:53 -81.27, 88.44 74.57 11/30/2017 20:54:36 -81.27, 88.52 74.56 1.57 17
6 11/30/2017 21:44:18 81.29,-103.48 105.51 11/30/2017 21:45:15 81.28,-103.62 105.51 2.35 57
7 12/03/2017 16:29:06 -81.28, 155.13 74.15 12/03/2017 16:28:54 -81.27, 155.07 74.16 1.14 12
8 12/03/2017 17:18:32 81.28, -37.20 105.87 12/03/2017 17:19:33 81.29, -37.11 105.90 1.57 61
9 12/06/2017 12:03:19 -81.27,-138.61 73.85 12/06/2017 12:03:12 -81.27,-138.80 73.87 3.22 7




NCC Satellite Simultaneous Nadir Overpasses (SNOs) Prediction Service
